Plymouth, NH

1:16 AM EST on February 23, 2017 (GMT -0500)
Plymouth

Weather History for K1P1 - March, 2012

Change the Weather History Date:

Saturday, March 24, 2012

  Actual Average (KLCI) Record (KLCI)
Temperature  
Mean Temperature 50 °F -  
Max Temperature 56 °F 45 °F 61 °F (1994)
Min Temperature 43 °F 23 °F 6 °F (2014)
Degree Days  
Heating Degree Days 16    
Moisture  
Dew Point 13 °F    
Average Humidity 24    
Maximum Humidity 36    
Minimum Humidity 11    
Precipitation  
Precipitation 0.00 in - - ()
Sea Level Pressure  
Sea Level Pressure 30.09 in    
Wind  
Wind Speed 6 mph (WNW)    
Max Wind Speed 12 mph    
Max Gust Speed 16 mph    
Visibility 10 miles    
Events Rain    
Averages and records for this station are not official NWS values.
T = Trace of Precipitation, MM = Missing Value Source: NWS Daily Summary

Daily Weather History Graph

Daily Weather History Graph

Search for Another Location

Airport or City:

Trip Planner

Search our weather history database for the weather conditions in past years. The results will help you decide how hot, cold, wet, or windy it might be!

Date:

Astronomy

Mar. 24, 2012 Rise Set
Actual Time 6:42 AM EDT 7:04 PM EDT
Civil Twilight 6:13 AM EDT 7:33 PM EDT
Nautical Twilight 5:39 AM EDT 8:07 PM EDT
Astronomical Twilight 5:04 AM EDT 8:42 PM EDT
Moon 7:14 AM EDT (3/24) 9:27 PM EDT (3/24)
Length of Visible Light 13h 20m
Length of Day
12h 22m
Waxing Crescent, 4% of the Moon is Illuminated
Mar 24
Waxing Crescent
Mar 30
First Quarter
Apr 6
Full
Apr 13
Last Quarter
Apr 21
New

Hourly Weather History & Observations

Time (EDT) Temp. Windchill Dew Point Humidity Pressure Visibility Wind Dir Wind Speed Gust Speed Precip Events Conditions
12:15 AM 48.6 °F - 19.2 °F 31% 30.08 in 10.0 mi WNW 9.2 mph - N/A   Clear
12:35 AM 51.3 °F - 12.2 °F 21% 30.08 in 10.0 mi West 9.2 mph - N/A   Clear
12:55 AM 50.2 °F - 12.6 °F 22% 30.09 in 10.0 mi WNW 9.2 mph - N/A   Clear
1:15 AM 49.6 °F - 12.9 °F 23% 30.09 in 10.0 mi WNW 8.1 mph - N/A   Clear
1:35 AM 49.3 °F - 12.7 °F 23% 30.10 in 10.0 mi WNW 9.2 mph - N/A   Clear
1:55 AM 49.6 °F - 12.0 °F 22% 30.10 in 10.0 mi West 6.9 mph - N/A   Clear
2:15 AM 49.3 °F - 11.3 °F 22% 30.11 in 10.0 mi WNW 6.9 mph - N/A   Clear
2:35 AM 48.2 °F - 13.6 °F 25% 30.11 in 10.0 mi WNW 5.8 mph - N/A   Clear
2:55 AM 48.2 °F - 11.5 °F 23% 30.11 in 10.0 mi NNW 3.5 mph - N/A   Clear
3:15 AM 47.3 °F - 13.8 °F 26% 30.11 in 10.0 mi Calm Calm - N/A   Clear
3:35 AM 44.2 °F - 18.3 °F 35% 30.10 in 10.0 mi Calm Calm - N/A   Clear
4:15 AM 44.6 °F 42.2 °F 19.2 °F 36% 30.10 in 10.0 mi WNW 4.6 mph - N/A   Clear
5:15 AM 45.7 °F 42.0 °F 15.1 °F 29% 30.11 in 10.0 mi West 6.9 mph - N/A   Scattered Clouds
5:35 AM 45.7 °F 42.0 °F 14.5 °F 29% 30.11 in 10.0 mi West 6.9 mph - N/A   Scattered Clouds
5:55 AM 45.5 °F 40.8 °F 14.4 °F 29% 30.12 in 10.0 mi West 9.2 mph - N/A   Scattered Clouds
6:15 AM 45.0 °F 39.3 °F 14.2 °F 29% 30.13 in 10.0 mi West 11.5 mph 16.1 mph N/A   Clear
6:35 AM 44.2 °F 39.2 °F 14.4 °F 30% 30.13 in 10.0 mi West 9.2 mph 16.1 mph N/A   Scattered Clouds
6:55 AM 43.7 °F 39.7 °F 14.7 °F 31% 30.13 in 10.0 mi West 6.9 mph - N/A   Scattered Clouds
7:15 AM 43.3 °F 39.2 °F 14.2 °F 31% 30.13 in 10.0 mi West 6.9 mph - N/A   Mostly Cloudy
7:35 AM 43.2 °F 38.4 °F 13.5 °F 30% 30.13 in 10.0 mi West 8.1 mph - N/A   Mostly Cloudy
7:55 AM 43.0 °F 38.8 °F 13.8 °F 31% 30.13 in 10.0 mi West 6.9 mph - N/A   Overcast
8:15 AM 43.0 °F 38.8 °F 14.9 °F 32% 30.13 in 10.0 mi WNW 6.9 mph - N/A   Overcast
8:35 AM 43.2 °F 38.4 °F 13.1 °F 30% 30.14 in 10.0 mi West 8.1 mph - N/A   Overcast
8:55 AM 43.2 °F 39.0 °F 14.0 °F 31% 30.14 in 10.0 mi West 6.9 mph - N/A   Overcast
9:15 AM 44.1 °F 41.5 °F 12.6 °F 28% 30.14 in 10.0 mi West 4.6 mph - N/A   Mostly Cloudy
9:35 AM 44.4 °F 40.5 °F 14.4 °F 30% 30.14 in 10.0 mi WNW 6.9 mph - N/A   Mostly Cloudy
9:55 AM 44.8 °F 43.3 °F 15.4 °F 31% 30.15 in 10.0 mi WNW 3.5 mph - N/A   Overcast
10:15 AM 45.9 °F 43.6 °F 12.7 °F 26% 30.14 in 10.0 mi NW 4.6 mph - N/A   Mostly Cloudy
10:55 AM 46.9 °F - 12.7 °F 25% 30.14 in 10.0 mi WNW 5.8 mph - N/A   Overcast
11:15 AM 48.2 °F - 13.1 °F 24% 30.13 in 10.0 mi WNW 4.6 mph - N/A   Overcast
11:35 AM 49.6 °F - 11.8 °F 22% 30.13 in 10.0 mi Calm Calm - N/A   Mostly Cloudy
11:55 AM 50.5 °F - 11.3 °F 21% 30.12 in 10.0 mi Calm Calm - N/A   Scattered Clouds
12:15 PM 52.3 °F - 1.9 °F 13% 30.11 in 10.0 mi Calm Calm - N/A   Scattered Clouds
12:35 PM 54.0 °F - -0.0 °F 11% 30.10 in 10.0 mi Calm Calm - N/A   Mostly Cloudy
12:55 PM 54.0 °F - 2.8 °F 13% 30.09 in 10.0 mi Calm Calm - N/A   Overcast
1:15 PM 55.4 °F - 6.4 °F 14% 30.09 in 10.0 mi Calm Calm - N/A   Overcast
1:35 PM 56.3 °F - 8.4 °F 15% 30.08 in 10.0 mi Calm Calm - N/A   Overcast
1:55 PM 55.9 °F - 7.5 °F 14% 30.07 in 10.0 mi Calm Calm - N/A   Mostly Cloudy
2:15 PM 56.3 °F - 6.8 °F 14% 30.06 in 10.0 mi Calm Calm - N/A   Scattered Clouds
2:35 PM 56.3 °F - 6.6 °F 14% 30.05 in 10.0 mi West 3.5 mph - N/A   Scattered Clouds
2:55 PM 56.1 °F - 11.7 °F 17% 30.05 in 10.0 mi NW 3.5 mph - N/A   Mostly Cloudy
3:15 PM 56.3 °F - 12.7 °F 18% 30.04 in 10.0 mi West 5.8 mph - N/A   Overcast
3:35 PM 55.6 °F - 13.8 °F 19% 30.04 in 10.0 mi West 6.9 mph - N/A   Mostly Cloudy
3:55 PM 55.6 °F - 14.2 °F 20% 30.04 in 10.0 mi West 4.6 mph - N/A   Scattered Clouds
4:15 PM 55.4 °F - 12.7 °F 18% 30.04 in 10.0 mi West 5.8 mph - N/A   Overcast
4:35 PM 55.2 °F - 13.6 °F 19% 30.03 in 10.0 mi West 8.1 mph - N/A   Overcast
4:55 PM 54.5 °F - 15.3 °F 21% 30.03 in 10.0 mi West 4.6 mph - N/A   Overcast
5:15 PM 54.1 °F - 13.3 °F 20% 30.03 in 10.0 mi West 4.6 mph - N/A   Overcast
5:35 PM 53.6 °F - 14.5 °F 21% 30.03 in 10.0 mi West 5.8 mph - N/A   Overcast
5:55 PM 53.2 °F - 11.8 °F 19% 30.03 in 10.0 mi West 5.8 mph - N/A   Overcast
6:15 PM 52.9 °F - 9.9 °F 18% 30.03 in 10.0 mi West 6.9 mph - N/A   Overcast
6:35 PM 52.9 °F - 10.2 °F 18% 30.04 in 10.0 mi West 6.9 mph - N/A   Overcast
7:15 PM 52.0 °F - 12.9 °F 21% 30.03 in 10.0 mi West 8.1 mph - N/A   Overcast
7:35 PM 51.1 °F - 16.3 °F 25% 30.03 in 10.0 mi West 4.6 mph - N/A Rain Light Rain
7:55 PM 50.5 °F - 17.6 °F 27% 30.03 in 10.0 mi Calm Calm - N/A Rain Light Rain
8:15 PM 49.3 °F - 20.1 °F 32% 30.03 in 10.0 mi Calm Calm - N/A   Light Drizzle
8:35 PM 48.6 °F - 21.6 °F 35% 30.03 in 10.0 mi Calm Calm - N/A   Light Drizzle
8:55 PM 47.7 °F - 26.4 °F 44% 30.03 in 10.0 mi Calm Calm - N/A   Light Drizzle
9:15 PM 48.2 °F - 24.1 °F 39% 30.03 in 10.0 mi WNW 5.8 mph - N/A Rain Light Rain
9:35 PM 46.8 °F - 27.7 °F 47% 30.03 in 10.0 mi WNW 3.5 mph - N/A Rain Light Rain
9:55 PM 44.2 °F - 35.4 °F 71% 30.03 in 10.0 mi Calm Calm - N/A   Overcast
10:15 PM 45.3 °F - 32.4 °F 61% 30.03 in 10.0 mi Calm Calm - N/A   Overcast
10:35 PM 45.1 °F - 31.8 °F 60% 30.02 in 10.0 mi Calm Calm - N/A   Overcast
10:55 PM 44.8 °F - 32.9 °F 63% 30.02 in 10.0 mi Calm Calm - N/A Rain Light Rain
11:15 PM 43.5 °F - 35.8 °F 74% 30.01 in 10.0 mi Calm Calm - N/A   Light Drizzle
11:35 PM 43.0 °F - 36.0 °F 76% 30.01 in 10.0 mi Calm Calm - N/A   Overcast
11:55 PM 43.0 °F - 36.1 °F 77% 30.01 in 10.0 mi Calm Calm - N/A Rain Light Rain